Fort Myers, FL

5:29 PM EDT on May 25, 2017 (GMT -0400)
Page

Weather History for KFMY - October, 2010

Change the Weather History Date:

Sunday, October 24, 2010

  Actual Average Record
Temperature  
Mean Temperature 81 °F 76 °F  
Max Temperature 90 °F 85 °F 93 °F (1919)
Min Temperature 71 °F 67 °F 50 °F (1937)
Degree Days  
Heating Degree Days 0 0  
Month to date heating degree days 0 0  
Since 1 July heating degree days 0 0  
Cooling Degree Days 16 11  
Month to date cooling degree days 277 328  
Year to date cooling degree days 3526 3574  
Growing Degree Days 30 (Base 50)    
Moisture  
Dew Point 70 °F    
Average Humidity 77    
Maximum Humidity 93    
Minimum Humidity 55    
Precipitation  
Precipitation T in 0.08 in 4.69 in (2005)
Month to date precipitation 0.01 2.38  
Year to date precipitation 49.55 51.76  
Sea Level Pressure  
Sea Level Pressure 30.07 in    
Wind  
Wind Speed 9 mph (East)    
Max Wind Speed 18 mph    
Max Gust Speed 24 mph    
Visibility 10 miles    
Events      
T = Trace of Precipitation, MM = Missing Value Source: NWS Daily Summary

Daily Weather History Graph

Daily Weather History Graph

Search for Another Location

Airport or City:

Trip Planner

Search our weather history database for the weather conditions in past years. The results will help you decide how hot, cold, wet, or windy it might be!

Date:

Astronomy

Oct. 24, 2010 Rise Set
Actual Time 7:31 AM EDT 6:51 PM EDT
Civil Twilight 7:08 AM EDT 7:14 PM EDT
Nautical Twilight 6:41 AM EDT 7:41 PM EDT
Astronomical Twilight 6:14 AM EDT 8:08 PM EDT
Moon 7:49 PM EDT (10/24) 8:56 AM EDT (10/24)
Length of Visible Light 12h 06m
Length of Day
11h 19m
Full, 97% of the Moon is Illuminated
Oct 24
Full
Oct 30
Last Quarter
Nov 6
New
Nov 13
First Quarter
Nov 21
Full

Hourly Weather History & Observations

Time (EDT) Temp. Heat Index Dew Point Humidity Pressure Visibility Wind Dir Wind Speed Gust Speed Precip Events Conditions
12:53 AM 73.0 °F - 69.1 °F 87% 30.12 in 10.0 mi ENE 6.9 mph - N/A   Clear
1:53 AM 73.0 °F - 69.1 °F 87% 30.10 in 10.0 mi East 5.8 mph - N/A   Clear
2:53 AM 72.0 °F - 69.1 °F 91% 30.08 in 10.0 mi ENE 5.8 mph - N/A   Clear
3:53 AM 72.0 °F - 69.1 °F 91% 30.08 in 9.0 mi ENE 6.9 mph - N/A   Clear
4:53 AM 71.1 °F - 69.1 °F 93% 30.07 in 8.0 mi ENE 4.6 mph - N/A   Clear
5:53 AM 72.0 °F - 69.1 °F 91% 30.08 in 8.0 mi East 6.9 mph - N/A   Clear
6:53 AM 72.0 °F - 69.1 °F 91% 30.09 in 8.0 mi ENE 3.5 mph - N/A   Clear
7:53 AM 72.0 °F - 69.1 °F 91% 30.10 in 6.0 mi East 5.8 mph - N/A   Clear
8:53 AM 75.0 °F - 70.0 °F 84% 30.11 in 10.0 mi East 8.1 mph - N/A   Clear
9:53 AM 80.1 °F 83.2 °F 70.0 °F 71% 30.12 in 10.0 mi East 12.7 mph - N/A   Clear
10:53 AM 82.9 °F 87.0 °F 70.0 °F 65% 30.12 in 10.0 mi East 13.8 mph 21.9 mph N/A   Partly Cloudy
11:53 AM 84.0 °F 88.4 °F 70.0 °F 63% 30.11 in 10.0 mi East 11.5 mph - N/A   Mostly Cloudy
12:53 PM 87.1 °F 91.3 °F 69.1 °F 55% 30.09 in 10.0 mi East 12.7 mph - N/A   Scattered Clouds
1:53 PM 86.0 °F 90.1 °F 69.1 °F 57% 30.06 in 10.0 mi East 11.5 mph 20.7 mph N/A   Partly Cloudy
2:53 PM 86.0 °F 90.1 °F 69.1 °F 57% 30.04 in 10.0 mi ENE 8.1 mph - N/A   Mostly Cloudy
3:53 PM 86.0 °F 90.1 °F 69.1 °F 57% 30.01 in 10.0 mi East 12.7 mph 18.4 mph N/A   Partly Cloudy
4:53 PM 88.0 °F 92.1 °F 69.1 °F 53% 30.00 in 10.0 mi East 16.1 mph 23.0 mph N/A   Clear
5:53 PM 84.0 °F 88.4 °F 70.0 °F 63% 30.01 in 10.0 mi ESE 10.4 mph - N/A   Clear
6:53 PM 80.1 °F 83.8 °F 72.0 °F 76% 30.02 in 10.0 mi SE 12.7 mph - N/A   Overcast
7:53 PM 78.1 °F - 73.0 °F 84% 30.03 in 10.0 mi SE 4.6 mph - 0.00 in   Scattered Clouds
8:53 PM 78.1 °F - 73.0 °F 84% 30.04 in 10.0 mi SE 5.8 mph - N/A   Overcast
9:53 PM 77.0 °F - 72.0 °F 84% 30.04 in 10.0 mi ESE 5.8 mph - N/A   Clear
10:53 PM 75.9 °F - 71.1 °F 85% 30.05 in 10.0 mi ESE 6.9 mph - N/A   Clear
11:53 PM 75.0 °F - 71.1 °F 87% 30.05 in 10.0 mi ESE 6.9 mph - N/A   Clear